Regional Weather Roundup
Issued by NWS Upton, NY

Current Version | Previous Version | Graphics & Text | Print | Product List | Glossary Off
Versions: 1 2 3 4 5 6 7 8 9 10 11 12 13 14 15 16 17 18 19 20 21 22 23 24 25 26 27 28 29 30 31 32 33 34 35 36 37 38 39 40 41 42 43 44 45 46 47 48 49 50

000
ASUS41 KOKX 180609
RWROKX

REGIONAL WEATHER ROUNDUP
NATIONAL WEATHER SERVICE NEW YORK NY
200 AM EDT WED OCT 18 2017

NOTE: "FAIR" INDICATES FEW OR NO CLOUDS BELOW 12,000 FEET WITH NO
SIGNIFICANT WEATHER AND/OR OBSTRUCTIONS TO VISIBILITY.

NYZ071-072-176-178-NJZ106-104-180700-
NEW YORK CITY METRO AREA

CITY           SKY/WX    TMP DP  RH WIND       PRES   REMARKS
Central Park   CLEAR     52  36  54 MISG      30.31S
Bronx Bot Gard   N/A     52  34  50 W2        30.30R
LaGuardia APRT CLEAR     54  36  50 SW8       30.28S
Kennedy INTL   CLEAR     53  40  61 W16       30.30S
Breezy Point     N/A     54 N/A N/A W12G18      N/A
Newark/Liberty CLEAR     47  37  68 SW7       30.30S
Teterboro      CLEAR     47  38  71 SW3       30.29R
$$

NYZ177-179-078>081-180700-
LONG ISLAND NEW YORK

CITY           SKY/WX    TMP DP  RH WIND       PRES   REMARKS
Jones Beach      N/A     55 N/A N/A W10         N/A
Matinecock PT    N/A     54 N/A N/A SW8         N/A
Farmingdale    CLEAR     48  40  73 W7        30.29S
MacArthur/ISP  CLEAR     45  42  89 W5        30.28S
Shirley        CLEAR     47  42  83 CALM      30.28S
Mt Sinai Harb    N/A    N/A N/A N/A SW6         N/A
Westhampton    CLEAR     34  31  88 CALM      30.29F
East Hampton   FAIR      39  38  95 CALM      30.27S
Montauk          N/A     56  46  69 SW6       30.28S
$$

NYZ052-065-067-180700-
HUDSON VALLEY

CITY           SKY/WX    TMP DP  RH WIND       PRES   REMARKS
White Plains   CLEAR     47  36  65 W3        30.27S
Larchmont Harb   N/A     54 N/A N/A SW8         N/A
Croton On Huds   N/A     50 N/A N/A S1          N/A
Newburgh       CLEAR     43  37  81 W8        30.27S
Montgomery     CLEAR     37  36  96 CALM      30.27S
Poughkeepsie   CLEAR     47  35  63 SW6       30.25F
Albany         PTCLDY    44  35  70 S6        30.20F
$$

NJZ001-105-106-008-010-013-015-019>022-104-180700-
NEW JERSEY

CITY           SKY/WX    TMP DP  RH WIND       PRES   REMARKS
Newark/Liberty CLEAR     47  37  68 SW7       30.30S
Teterboro      CLEAR     47  38  71 SW3       30.29R
Caldwell       CLEAR     43  38  82 CALM      30.30S
Somerville     CLEAR     36  36 100 CALM      30.29S
Linden         FAIR      47  37  67 CALM      30.30S
Perth Amboy      N/A     46 N/A N/A W7          N/A
Sussex         CLEAR     38  37  97 CALM      30.28F
Andover          N/A     39  37  92 CALM      30.29S
Trenton        CLEAR     43  37  79 CALM      30.31S
Millville      CLEAR     39  38  96 CALM      30.33S
Atlantic City  CLEAR     40  38  93 CALM      30.32S
Wrightstown    CLEAR     39  37  93 CALM      30.30S
Toms River       N/A     37  36  96 SW3       30.32S
Belmar         CLEAR     43  38  82 SW5       30.32S
$$

PAZ047>061-062-071-180700-
EASTERN PENNSYLVANIA

CITY           SKY/WX    TMP DP  RH WIND       PRES   REMARKS
Philadelphia   CLEAR     50  40  68 W3        30.33R
Allentown      CLEAR     40  36  86 NW3       30.30S
Scranton       CLEAR     40  37  89 CALM      30.28S
$$

CTZ002-004>006-009-010-012-RIZ004-006-007-MAZ004-011-015-180700-
SOUTHERN NEW ENGLAND
 IN CT

CITY           SKY/WX    TMP DP  RH WIND       PRES   REMARKS
Bradley INTL   CLEAR     42  38  85 S7        30.23F
Hartford       CLEAR     46  42  86 S3        30.24F
Danbury        CLEAR     41  37  86 CALM      30.27S
Wtrbury/Oxford CLEAR     45  37  73 VRB6      30.25F
Norwalk Harbor   N/A     52 N/A N/A W12         N/A
Bridgeport     CLEAR     52  39  61 W8        30.27S
Meriden        CLEAR     37  36  96 S3        30.26F
New Haven      CLEAR     55  41  59 W7        30.27S
Chester        FAIR      48  41  76 W7        30.25F
Groton         CLEAR     54  42  64 W8        30.25F
Wilimantic     CLEAR     37  35  92 CALM      30.25F

 IN RI

CITY           SKY/WX    TMP DP  RH WIND       PRES   REMARKS
Providence     CLEAR     49  42  77 SW5       30.25F
Block Island   CLEAR     55  44  66 W14G23    30.27S
Westerly       CLEAR     55  45  68 W5        30.26F
 IN MA

CITY           SKY/WX    TMP DP  RH WIND       PRES   REMARKS
Boston         CLEAR     48  39  71 SW16      30.21F
Worcester      CLEAR     45  34  65 W17       30.19F
Westfield      CLEAR     38  35  89 CALM      30.22F
Provincetown   CLEAR     52  42  69 SW16      30.24F
Nantucket      CLEAR     50  43  77 W7        30.26F
$$

ANZ330-335-338-340-345-350-353-355-180700-
COASTAL MARINE OBSERVATIONS


STATION/POSITION TIME  SKY/WX   TEMP    WIND        PRES    VSBY  WAVE
                                AIR SEA DIR/SP/G                  HT/PER
                 (UTC)          (F)     (DEG/KT/KT) (MB)    (MI)  (FT/S)
NY HARB ENTRANCE 0550            58 65  260/ 19/ 21 1024.9          2/10
20 S FIRE ISLAND 0450            59 63  260/ 14/ 17 1025.7          2/10
GREAT SOUTH BAY  0530            58 62  250/ 14/ 17   N/A
15 E BARNEGAT LI 0530               66                N/A           3/11
HUDSON CANYON    0550            57 64  270/  8/ 10 1025.8          3/11
KINGS POINT      0548                   270/  9/ 11 1026.2
EXECUTION ROCKS  0545            57     220/ 16/ 19   N/A
WESTERN LI SOUND 0449            58     230/ 14/ 21   N/A           1/ 3
CENTRAL LI SOUND 0515            60     240/ 17/ 21   N/A           3
EASTERN LI SOUND NOT AVBL
ROBBINS REEF     0548                   250/ 10/ 12 1026.4
$$


>>>>>>>>>>>>>>>>>>>>>>>>>>>> KEY <<<<<<<<<<<<<<<<<<<<<<<<<<<
>                                                          <
>     SKY/WX - Sky Condition/Present Weather               <
>     TMP    - Temperature in Fahrenheit                   <
>     DP     - Dew Point in Fahrenheit                     <
>     RH     - Relative Humidity in Percent                <
>     WIND   - Direction (from) and Speed in MPH           <
>     PRES   - Mean Sea Level Pressure (inches of Hg)      <
>     WCI    - Wind Chill Index                            <
>     VSB    - VISIBILITY IN MILES                         <
>     HX     - HEAT INDEX                                  <
>     TC     - TEMPERATURE IN CELSIUS                      <
>     VRB    - VARIABLE WIND DIRECTION                     <
>                                                          <
>>>>>>>>>>>>>>>>>>>>>>>>>>>> KEY <<<<<<<<<<<<<<<<<<<<<<<<<<<



USA.gov is the U.S. government's official web portal to all federal, state and local government web resources and services.